Location: Conflandey
(47.7287°N, 6.0456°E)
Time: 03:00:40
(UTC+00:00)

Cosmos 2333 Rocket - Pass Details

Date: 24 October 2021
Orbit: 837 x 864 km, 70.8° (Epoch: 28 November)

Event Time Altitude Azimuth Distance (km) Brightness Sun altitude
Rises 20:04:39 0° 228° (SW) 3,391 5.6 -36.0°
Reaches altitude 10° 20:07:12 10° 235° (SW) 2,463 4.9 -36.4°
Enters shadow 20:09:42 25° 250° (WSW) 1,656 4.0 -36.7°
